CAPE
1354 1499 1223 973 1163 1359 1722 1851 1677 1200 1292 2410 1808 2514 2159 2070 1902 1604 1816 1553 1453 680 156 32 0 171 566 773 766 692 234 24 0 0 0 0 0 0
1025 1131 1181 592 931 1017 1132 1148 1411 1475 1082 1613 1554 1867 2073 1694 1370 1359 1346 962 1110 861 1119 1093 173 31 268 283 408 488 442 147 10 0 0 0 0 0
1279 1252 1201 1101 698 645 888 1027 807 841 946 872 1396 1437 2054 1787 1678 1681 1182 988 559 1071 873 798 118 0 99 96 129 168 263 259 108 1 0 0 0 0
746 938 1038 586 868 825 723 795 905 1020 794 597 722 831 1340 1442 1409 1810 1265 709 608 460 348 245 18 0 45 55 66 55 62 74 154 59 0 0 0 0
822 763 927 822 925 428 388 395 280 376 554 537 510 523 762 1227 1286 1306 857 1011 971 497 414 183 9 55 160 91 48 29 34 14 2 64 14 0 0 0
881 784 682 780 991 1123 1296 1047 1078 1138 728 561 391 248 336 576 910 579 321 393 718 666 659 370 222 278 268 181 74 132 160 6 1 0 4 0 0 0
897 1021 932 811 812 814 911 951 1173 1006 462 147 263 207 281 520 652 427 446 430 431 600 450 620 186 15 18 21 24 121 93 0 0 0 0 0 0 0
1292 1515 1319 1056 778 549 577 542 705 1033 1183 933 546 433 738 1030 952 859 711 486 515 419 460 279 150 128 46 83 139 164 114 73 0 0 0 0 0 0
1429 1353 1232 544 810 906 783 575 423 442 492 889 992 1098 1113 1234 1381 1575 1053 1031 904 602 511 399 470 395 151 143 369 355 351 51 0 0 0 0 0 0
1311 1354 1452 1361 17 338 1147 985 1042 1251 1199 1153 1009 1333 1641 1505 1485 1573 1394 1451 1464 1038 758 518 431 442 449 402 524 519 373 31 0 0 0 0 0 0
523 74 106 20 0 0 565 1193 1195 1216 1300 887 848 779 759 680 572 786 863 835 744 627 656 436 353 369 392 434 452 522 456 214 0 0 0 0 0 0
250 2 0 0 0 0 0 90 409 761 448 317 488 579 757 1200 955 1031 1335 1184 1060 882 782 1043 1037 928 779 598 448 448 576 310 290 135 88 55 0 0
0 0 0 0 0 0 0 0 0 0 0 0 6 135 340 627 823 1067 1388 1390 1344 1258 1152 1219 1143 1225 1138 1049 908 678 516 554 664 635 261 190 1 9
0 0 0 0 0 0 0 0 0 0 0 0 0 0 0 0 0 0 0 20 45 218 703 1444 1488 1476 1396 1185 1099 907 914 812 820 871 895 903 138 0
0 0 0 0 0 0 0 0 0 0 0 0 0 0 0 0 0 0 0 81 313 472 413 1059 1534 1481 1476 1468 1435 1369 1142 1075 1076 964 1155 1129 1108 1005
0 0 0 0 0 0 0 0 0 0 0 0 0 0 0 0 0 0 0 0 0 0 19 155 417 824 952 1243 1209 1271 1197 1213 1066 1147 1169 1204 1316 1209
0 0 0 0 0 0 0 0 0 0 0 0 0 0 0 0 0 0 0 0 0 0 0 0 8 47 182 908 849 672 884 877 1087 1059 1183 1079 1338 1349
0 0 0 0 0 0 0 0 0 0 0 0 0 0 0 0 0 0 0 0 0 0 0 0 3 15 9 0 18 139 323 463 645 902 965 1022 1112 1400
0 0 0 0 0 0 0 0 0 0 0 0 0 0 0 0 0 0 0 0 0 0 0 0 0 12 142 42 0 3 0 0 268 870 1015 892 899 981
0 0 0 0 0 0 0 0 0 0 0 0 0 0 0 0 0 0 0 0 0 0 0 0 0 0 6 17 31 59 22 133 47 58 235 592 829 804
0 0 0 0 0 0 0 0 0 0 0 0 0 0 0 0 0 0 0 0 0 0 0 0 0 1 1 27 27 1 9 92 109 116 277 459 584 710
0 0 0 0 0 0 0 0 0 0 0 0 0 0 0 0 0 0 0 0 0 0 0 0 0 0 0 0 6 24 18 71 89 6 62 202 582 336
0 0 0 0 0 0 0 0 0 0 0 0 0 0 0 0 0 0 0 0 0 0 1 0 0 0 0 0 0 5 19 12 8 31 89 159 171 74
CIN
-1 -10 -11 -1 -1 -3 -3 -2 -1 -2 -2 -7 -2 -8 -1 -1 -19 -27 -18 -63 -100 -190 -315 -382 0 -295 -196 -188 -185 -190 -280 -457 0 0 0 0 0 0
-3 -1 -14 -3 -2 -2 -1 -1 -2 -2 -1 -3 -3 -5 -5 -12 -9 -28 -34 -98 -105 -148 -119 -131 -291 -316 -254 -261 -231 -217 -219 -321 -392 0 0 0 0 0
-1 -1 -4 -9 -9 -1 -2 -1 -2 -2 -2 -3 -4 -3 -10 -19 -23 -32 -34 -50 -57 -90 -127 -146 -282 0 -313 -305 -292 -274 -240 -274 -384 -106 0 0 0 0
-3 -1 -1 -1 -9 -16 -4 -1 -1 -2 -8 -27 -14 -8 -2 -3 -14 -20 -19 -71 -98 -132 -182 -207 -199 0 -335 -324 -338 -366 -374 -380 -346 -469 0 0 0 0
-1 -1 -1 -1 0 -9 -10 -3 -12 -15 -12 -16 -33 -25 -4 -2 -2 -1 -24 -27 -30 -68 -104 -187 -52 -255 -226 -251 -297 -380 -423 -504 -237 -453 -558 0 0 0
-1 -2 -2 -1 -1 -1 -1 -1 -1 -2 -2 -4 -28 -43 -23 -4 -2 -10 -50 -43 -27 -24 -23 -78 -122 -107 -144 -178 -221 -229 -262 -301 -141 0 -280 0 0 0
-3 -1 -1 -1 -9 -13 -3 -2 -2 -1 -3 -25 -16 -26 -11 -2 -3 -8 -17 -29 -35 -7 -21 -22 -71 -169 -191 -208 -230 -216 -296 0 0 0 0 0 0 0
0 -1 0 -12 -23 -31 -35 -41 -32 -9 -1 -2 -2 -2 -1 -1 -1 -2 -2 -4 -10 -9 -24 -76 -82 -132 -189 -155 -168 -164 -255 -365 0 0 0 0 0 0
-1 -1 -1 -2 -6 0 -12 -34 -50 -52 -48 -15 -2 -1 -4 -6 -5 -1 -2 -2 -1 -16 -33 -70 -32 -40 -113 -110 -108 -129 -171 -344 0 0 0 0 0 0
0 0 0 0 -95 -126 -3 0 -1 -1 -5 -16 -9 -5 -4 -5 -4 -1 -2 -2 -3 -3 -5 -35 -37 -41 -47 -49 -72 -106 -147 -294 0 0 0 0 0 0
-16 -187 -152 -66 0 0 -58 -1 -1 -1 -2 -8 -13 -27 -46 -58 -69 -37 -15 -1 -2 -5 -3 -7 -20 -56 -62 -64 -47 -74 -117 -199 0 0 0 0 0 0
-20 -8 0 0 0 0 0 -101 -50 -11 -52 -84 -54 -45 -32 -30 -48 -45 -2 -1 -2 -2 -3 -3 -4 -2 -12 -31 -54 -55 -33 -145 -152 -247 -309 -380 0 0
0 0 0 0 0 0 0 0 0 0 0 0 -105 -60 -17 -2 -4 -25 -7 -5 -2 -1 -3 -7 -2 -1 -2 -14 -23 -23 -30 -24 -12 -31 -180 -266 -82 -236
0 0 0 0 0 0 0 0 0 0 0 0 0 0 0 0 0 0 0 -37 -49 -75 -51 -1 -1 -1 -2 -2 -7 -14 -5 -7 -6 -2 -2 -13 -296 0
0 0 0 0 0 0 0 0 0 0 0 0 0 0 0 0 0 0 0 -60 -43 -44 -35 -5 -1 -1 -1 -1 -1 -2 -3 -8 -3 -3 -4 -2 -1 -19
0 0 0 0 0 0 0 0 0 0 0 0 0 0 0 0 0 0 0 0 0 0 -41 -27 -12 -1 -2 -1 -2 -1 -2 -1 -1 -2 -3 -1 -2 -2
0 0 0 0 0 0 0 0 0 0 0 0 0 0 0 0 0 0 0 0 0 0 0 0 -35 -46 -10 -2 -3 -9 -3 -2 -1 -7 -2 -6 -2 -1
0 0 0 0 0 0 0 0 0 0 0 0 0 0 0 0 0 0 0 0 0 0 0 0 -2 -3 -3 0 -14 -15 -17 -6 -2 -2 -3 -1 -2 -1
0 0 0 0 0 0 0 0 0 0 0 0 0 0 0 0 0 0 0 0 0 0 0 0 0 -2 -1 -16 0 -5 0 0 -12 -2 -3 -9 -6 -11
0 0 0 0 0 0 0 0 0 0 0 0 0 0 0 0 0 0 0 0 0 0 0 0 0 0 -1 -2 -2 -81 -11 -4 -28 -19 -22 -4 -6 -12
0 0 0 0 0 0 0 0 0 0 0 0 0 0 0 0 0 0 0 0 0 0 0 0 0 -8 -5 0 -1 0 -38 -7 -17 -4 -2 -1 -1 -4
0 0 0 0 0 0 0 0 0 0 0 0 0 0 0 0 0 0 0 0 0 0 0 0 0 0 0 0 0 -1 -8 -32 -6 -23 -29 -22 -1 -2
0 0 0 0 0 0 0 0 0 0 0 0 0 0 0 0 0 0 0 0 0 -1 -2 0 0 0 0 0 0 0 -1 -1 -3 -3 -28 -18 -44 -101
Wind_Speed
17 18 23 20 19 18 19 19 21 22 20 14 21 17 22 21 23 28 30 31 24 26 28 27 26 20 15 12 10 10 10 9 10 11 11 12 14 16
19 17 22 25 22 21 22 22 22 24 26 18 22 22 25 28 24 31 32 13 8 16 21 22 22 19 18 12 9 7 6 6 6 7 8 9 10 12
21 21 23 23 27 25 25 25 26 25 29 30 24 24 28 30 32 33 27 23 21 13 24 19 16 13 13 13 7 6 4 4 5 5 6 7 8 10
19 21 24 22 13 13 16 26 30 28 31 34 33 34 26 30 31 34 34 34 33 18 21 15 16 13 8 9 2 4 3 2 4 5 6 6 6 7
16 18 19 18 18 25 24 31 29 25 26 34 35 32 30 31 33 35 33 26 11 24 17 15 19 10 3 1 6 4 2 2 3 5 5 5 5 6
17 18 18 19 20 23 20 19 21 26 31 23 32 32 26 28 22 23 32 32 32 33 25 14 9 2 2 0 1 1 5 4 4 3 4 4 4 5
16 18 16 17 21 21 22 22 25 22 23 26 26 25 24 27 31 33 32 33 33 28 29 27 25 25 19 2 4 9 14 8 3 2 3 4 4 4
18 17 18 18 17 15 16 17 22 24 25 28 30 28 30 27 28 31 34 34 35 29 31 30 27 26 26 24 22 27 22 7 2 4 1 3 4 4
21 21 21 20 19 20 17 17 21 19 17 22 27 30 32 30 31 34 35 36 37 38 37 33 30 27 28 30 24 22 13 5 6 7 5 2 1 2
23 23 23 24 24 25 25 26 25 26 22 22 23 28 28 28 27 30 33 37 27 20 21 32 35 30 30 30 26 10 8 8 4 6 7 6 4 3
21 20 20 23 26 28 27 27 28 28 29 24 26 30 33 35 34 32 32 36 39 38 35 38 38 38 36 36 36 12 12 10 4 4 5 6 6 6
19 19 21 23 27 27 26 27 28 29 31 34 36 36 33 29 22 20 29 33 38 41 35 35 38 38 40 38 28 27 29 14 10 8 8 8 8 9
24 24 24 28 29 27 26 27 27 30 32 33 34 34 33 33 33 24 23 29 38 40 37 35 37 36 35 42 40 32 30 29 22 18 12 10 9 8
26 27 29 31 32 31 29 26 30 31 31 32 34 34 33 33 34 34 35 37 38 42 42 38 39 38 40 42 44 40 36 35 33 31 27 23 16 13
25 29 29 30 32 31 27 33 34 31 33 33 33 35 35 35 36 36 35 33 32 31 34 32 34 38 37 40 43 42 43 39 36 34 30 26 24 21
28 28 27 26 24 27 27 28 30 31 34 35 36 36 37 37 37 37 38 37 39 39 36 34 33 34 37 39 39 43 40 38 36 36 35 32 27 25
30 27 27 27 28 28 29 29 30 31 32 33 35 38 39 39 39 38 38 39 41 41 40 39 36 38 39 35 38 38 39 39 35 31 31 33 31 27
26 27 28 28 29 30 31 31 31 32 34 36 36 37 39 40 41 41 40 40 42 42 43 42 40 39 37 38 34 40 39 39 38 37 34 34 32 29
27 27 28 29 30 30 31 32 33 33 35 36 37 38 40 42 43 43 43 44 45 44 44 45 46 45 46 46 44 34 38 39 40 41 38 35 30 26
27 28 30 31 32 33 34 34 35 36 37 38 40 40 40 41 43 43 44 46 47 47 48 46 46 47 46 46 50 49 40 43 41 42 42 39 39 39
28 29 30 32 33 34 35 37 38 39 40 40 40 41 42 43 45 45 45 47 48 48 50 50 46 47 49 50 50 50 48 38 32 38 40 41 42 41
28 30 31 32 33 35 36 38 39 40 41 42 43 43 44 45 47 49 49 50 50 50 53 52 51 49 49 50 54 52 49 46 42 38 38 36 41 44
29 31 32 33 34 35 37 39 40 42 43 44 45 46 47 49 50 51 51 52 54 54 54 56 54 52 53 53 54 55 54 51 49 48 44 36 36 35
Wind_Direction
292 293 254 278 287 289 286 284 277 265 284 333 301 340 323 340 342 329 329 335 3 3 1 6 12 22 31 39 46 52 62 69 73 72 73 74 71 69
293 301 282 264 280 284 283 286 287 281 260 319 307 318 315 307 338 320 305 261 13 10 8 8 10 18 25 38 50 61 76 90 105 100 97 90 88 81
287 291 285 285 268 278 281 281 285 291 267 268 307 316 304 291 294 302 279 277 298 8 357 6 11 20 28 36 60 70 88 107 117 121 116 103 97 91
300 295 288 289 313 311 309 289 280 289 286 278 285 284 318 313 315 304 307 300 311 357 358 11 15 25 45 42 199 80 84 141 143 145 141 130 112 103
313 306 307 306 308 288 295 272 285 299 301 287 288 301 309 312 311 305 293 290 3 347 359 12 10 29 51 80 230 222 79 182 158 166 159 153 140 119
310 310 308 305 302 298 305 310 309 299 292 309 290 298 314 315 325 258 287 302 315 319 345 5 14 222 216 199 126 161 52 49 70 149 164 158 156 140
310 310 315 310 302 304 303 305 301 313 315 308 311 316 319 316 308 299 282 296 312 333 327 280 277 276 261 35 22 29 16 22 22 33 184 177 177 177
306 310 311 313 314 316 314 314 309 307 308 303 301 308 308 316 319 310 295 296 300 329 289 279 273 272 272 265 347 341 353 360 342 22 110 174 191 195
301 304 306 310 313 312 318 317 311 312 313 311 307 306 304 311 311 305 298 295 297 302 290 277 277 270 277 288 344 349 0 357 20 32 44 66 102 200
300 301 302 302 306 304 304 303 305 305 311 312 311 308 309 311 315 314 311 305 324 331 329 268 292 271 275 278 336 355 2 10 23 18 14 9 1 336
308 310 309 306 308 305 304 305 303 304 305 311 310 305 303 300 305 309 312 306 301 306 309 282 297 290 291 291 302 349 353 349 322 281 306 317 315 320
310 313 316 314 308 309 307 305 305 306 305 302 300 302 306 311 315 316 313 308 301 292 308 307 300 301 295 303 328 329 329 339 332 315 294 282 306 325
299 302 306 307 309 313 311 307 308 308 306 305 305 305 305 303 305 313 314 311 299 293 302 311 307 310 309 294 301 318 324 326 328 329 317 311 310 309
298 299 303 303 303 305 309 309 310 310 307 305 304 305 306 306 306 305 305 303 300 295 298 304 302 305 304 303 299 305 311 316 320 321 323 325 324 314
313 304 305 306 303 304 309 306 300 303 302 304 305 304 305 307 307 306 307 307 308 309 307 308 307 305 306 305 302 303 302 307 313 317 320 319 320 323
311 308 310 313 316 310 316 315 310 307 303 301 302 304 304 304 305 307 306 307 305 304 308 310 310 310 307 307 307 304 306 308 310 311 313 315 318 317
308 312 311 311 311 313 314 313 312 312 309 307 305 304 302 303 304 305 305 304 303 303 304 307 309 308 307 309 308 309 308 307 311 312 312 312 312 315
312 311 312 315 315 314 313 313 314 313 311 309 307 306 304 302 303 303 303 303 302 302 302 303 306 307 307 305 307 305 307 306 308 309 311 310 310 313
310 313 312 313 312 314 315 313 312 314 312 310 309 307 305 303 302 302 301 300 299 300 300 298 298 300 302 300 300 307 305 305 305 304 305 306 308 311
313 313 312 311 310 311 311 312 311 311 310 310 308 308 307 307 305 304 303 300 299 299 298 299 298 297 299 300 299 294 302 301 302 301 301 302 303 303
315 315 315 315 313 313 311 310 310 309 309 309 308 307 306 306 304 303 303 302 302 300 296 296 298 301 301 299 296 295 295 299 299 300 301 300 300 301
316 315 316 315 315 313 312 311 310 309 308 307 306 307 306 305 303 301 301 300 300 298 296 297 299 299 298 295 292 295 296 296 298 297 296 294 296 295
315 315 315 315 315 314 313 312 310 309 308 307 306 305 305 303 302 301 301 299 297 297 298 296 296 295 293 293 293 292 292 294 294 293 294 295 295 294